• In Russia
  • List of Countries
  • For 7 days
  • Water Temperature
  • Satellite Maps
  • Weather Map
  • Weather Widgets
  • user-avatar
    Login

    Hourly Weather Honholoy

    Today, 19 January, Saturday

    Time Temperature Precipitation Wind Pressure Humidity
    00:00 -18°C° 0 mm 2 mps 697 mmHg 96%
    01:00 -19°C° 0 mm 2 mps 697 mmHg 97%
    02:00 -20°C° 0 mm 2 mps 697 mmHg 97%
    03:00 -20°C° 0 mm 2 mps 697 mmHg 97%
    04:00 -21°C° 0 mm 2 mps 697 mmHg 98%
    05:00 -21°C° 0 mm 2 mps 697 mmHg 98%
    06:00 -21°C° 0 mm 2 mps 698 mmHg 98%
    07:00 -18°C° 0 mm 1 mps 698 mmHg 98%
    08:00 -17°C° 0 mm 1 mps 698 mmHg 96%
    09:00 -16°C° 0 mm 1 mps 698 mmHg 95%
    10:00 -15°C° 0 mm 1 mps 698 mmHg 93%
    11:00 -16°C° 0 mm 2 mps 698 mmHg 91%
    12:00 -15°C° 0 mm 2 mps 698 mmHg 89%
    13:00 -14°C° 0 mm 2 mps 699 mmHg 87%
    14:00 -15°C° 0 mm 2 mps 698 mmHg 88%
    15:00 -16°C° 0 mm 2 mps 698 mmHg 90%
    16:00 -15°C° 0 mm 1 mps 698 mmHg 92%
    17:00 -16°C° 0 mm 1 mps 698 mmHg 93%
    18:00 -17°C° 0 mm 1 mps 698 mmHg 93%
    19:00 -19°C° 0 mm 2 mps 697 mmHg 93%
    20:00 -19°C° 0 mm 2 mps 697 mmHg 92%
    21:00 -20°C° 0 mm 2 mps 696 mmHg 91%
    22:00 -18°C° 0 mm 1 mps 696 mmHg 90%
    23:00 -18°C° 0 mm 1 mps 695 mmHg 88%

    Tomorrow, 20 January, Sunday

    Time Temperature Precipitation Wind Pressure Humidity
    00:00 -17°C° 0 mm 1 mps 695 mmHg 86%
    01:00 -17°C° 0 mm 1 mps 694 mmHg 84%
    02:00 -17°C° 0 mm 1 mps 694 mmHg 83%
    03:00 -17°C° 0 mm 1 mps 693 mmHg 82%
    04:00 -18°C° 0 mm 1 mps 693 mmHg 81%
    05:00 -18°C° 0 mm 1 mps 693 mmHg 81%
    06:00 -18°C° 0 mm 1 mps 693 mmHg 81%
    07:00 -18°C° 0 mm 1 mps 692 mmHg 81%
    08:00 -17°C° 0 mm 1 mps 693 mmHg 81%
    09:00 -18°C° 0 mm 2 mps 693 mmHg 80%
    10:00 -17°C° 0 mm 2 mps 693 mmHg 79%
    11:00 -15°C° 0 mm 2 mps 693 mmHg 77%
    12:00 -14°C° 0 mm 2 mps 692 mmHg 75%
    13:00 -12°C° 0 mm 2 mps 692 mmHg 74%
    14:00 -13°C° 0 mm 2 mps 692 mmHg 77%
    15:00 -15°C° 0 mm 2 mps 692 mmHg 80%
    16:00 -16°C° 0 mm 2 mps 692 mmHg 83%
    17:00 -16°C° 0 mm 2 mps 692 mmHg 83%
    18:00 -17°C° 0 mm 2 mps 692 mmHg 82%
    19:00 -16°C° 0 mm 1 mps 692 mmHg 82%
    20:00 -16°C° 0 mm 1 mps 691 mmHg 81%
    21:00 -16°C° 0 mm 1 mps 691 mmHg 80%
    22:00 -16°C° 0 mm 1 mps 691 mmHg 79%
    23:00 -16°C° 0 mm 1 mps 691 mmHg 78%

    Day after tomorrow, 21 January, Monday

    Time Temperature Precipitation Wind Pressure Humidity
    00:00 -16°C° 0 mm 1 mps 690 mmHg 77%
    01:00 -17°C° 0 mm 1 mps 690 mmHg 76%
    02:00 -17°C° 0 mm 1 mps 690 mmHg 76%
    03:00 -17°C° 0 mm 1 mps 689 mmHg 76%
    04:00 -17°C° 0 mm 1 mps 689 mmHg 76%
    05:00 -17°C° 0 mm 1 mps 689 mmHg 76%
    06:00 -17°C° 0 mm 1 mps 689 mmHg 76%
    07:00 -17°C° 0 mm 1 mps 689 mmHg 76%
    08:00 -16°C° 0 mm 1 mps 689 mmHg 76%
    09:00 -15°C° 0 mm 1 mps 689 mmHg 76%
    10:00 -15°C° 0 mm 2 mps 690 mmHg 75%
    11:00 -14°C° 0 mm 2 mps 689 mmHg 75%
    12:00 -12°C° 0 mm 2 mps 689 mmHg 74%
    13:00 -10°C° 0 mm 2 mps 689 mmHg 74%
    14:00 -12°C° 0 mm 2 mps 689 mmHg 78%
    15:00 -13°C° 0 mm 2 mps 689 mmHg 81%
    16:00 -14°C° 0 mm 2 mps 688 mmHg 85%
    17:00 -15°C° 0 mm 2 mps 689 mmHg 85%
    18:00 -15°C° 0 mm 2 mps 689 mmHg 85%
    19:00 -14°C° 0 mm 1 mps 689 mmHg 85%
    20:00 -14°C° 0 mm 1 mps 689 mmHg 85%
    21:00 -14°C° 0 mm 1 mps 689 mmHg 85%
    22:00 -14°C° 0 mm 1 mps 689 mmHg 84%
    23:00 -14°C° 0 mm 1 mps 690 mmHg 84%

    22 January, Tuesday

    Time Temperature Precipitation Wind Pressure Humidity
    00:00 -14°C° 0 mm 1 mps 690 mmHg 84%
    01:00 -14°C° 0 mm 1 mps 690 mmHg 84%
    02:00 -14°C° 0 mm 1 mps 690 mmHg 83%
    03:00 -15°C° 0 mm 1 mps 690 mmHg 82%
    04:00 -15°C° 0 mm 1 mps 689 mmHg 81%
    05:00 -15°C° 0 mm 1 mps 690 mmHg 80%
    06:00 -15°C° 0 mm 1 mps 690 mmHg 79%
    07:00 -15°C° 0 mm 1 mps 690 mmHg 77%
    08:00 -13°C° 0 mm 1 mps 690 mmHg 76%
    09:00 -12°C° 0 mm 0 mps 690 mmHg 76%
    10:00 -11°C° 0 mm 0 mps 690 mmHg 75%
    11:00 -9°C° 0 mm 0 mps 690 mmHg 72%
    12:00 -8°C° 0 mm 0 mps 690 mmHg 70%
    13:00 -7°C° 0 mm 1 mps 690 mmHg 68%
    14:00 -8°C° 0 mm 0 mps 690 mmHg 71%
    15:00 -9°C° 0 mm 0 mps 690 mmHg 74%
    16:00 -10°C° 0 mm 0 mps 690 mmHg 78%
    17:00 -11°C° 0 mm 0 mps 690 mmHg 76%
    18:00 -12°C° 0 mm 0 mps 690 mmHg 75%
    19:00 -13°C° 0 mm 0 mps 691 mmHg 73%
    20:00 -13°C° 0 mm 1 mps 691 mmHg 73%
    21:00 -13°C° 0 mm 1 mps 692 mmHg 72%
    22:00 -13°C° 0 mm 1 mps 692 mmHg 71%
    23:00 -13°C° 0 mm 1 mps 692 mmHg 73%

    23 January, Wednesday

    Time Temperature Precipitation Wind Pressure Humidity
    00:00 -13°C° 0 mm 1 mps 693 mmHg 74%
    01:00 -13°C° 0 mm 1 mps 693 mmHg 76%
    02:00 -13°C° 0 mm 1 mps 693 mmHg 79%
    03:00 -12°C° 0 mm 1 mps 694 mmHg 82%
    04:00 -12°C° 0 mm 1 mps 694 mmHg 86%
    05:00 -12°C° 0 mm 1 mps 694 mmHg 88%
    06:00 -12°C° 0 mm 1 mps 695 mmHg 90%
    07:00 -12°C° 0 mm 1 mps 695 mmHg 93%
    08:00 -12°C° 0 mm 1 mps 696 mmHg 92%
    09:00 -11°C° 0 mm 1 mps 696 mmHg 92%
    10:00 -10°C° 0 mm 1 mps 697 mmHg 91%
    11:00 -10°C° 0 mm 2 mps 697 mmHg 88%
    12:00 -9°C° 0 mm 2 mps 697 mmHg 86%
    13:00 -9°C° 0 mm 2 mps 697 mmHg 83%
    14:00 -10°C° 0 mm 2 mps 697 mmHg 85%
    15:00 -12°C° 0 mm 2 mps 697 mmHg 87%
    16:00 -11°C° 0 mm 1 mps 697 mmHg 89%
    17:00 -12°C° 0 mm 1 mps 698 mmHg 91%
    18:00 -14°C° 0 mm 1 mps 698 mmHg 92%
    19:00 -15°C° 0 mm 1 mps 699 mmHg 94%
    20:00 -16°C° 0 mm 1 mps 699 mmHg 95%
    21:00 -17°C° 0 mm 0 mps 699 mmHg 95%
    22:00 -17°C° 0 mm 0 mps 699 mmHg 96%
    23:00 -18°C° 0 mm 0 mps 699 mmHg 96%

    24 January, Thursday

    Time Temperature Precipitation Wind Pressure Humidity
    00:00 -18°C° 0 mm 0 mps 699 mmHg 97%
    01:00 -18°C° 0 mm 0 mps 699 mmHg 97%
    02:00 -18°C° 0 mm 0 mps 699 mmHg 97%
    03:00 -19°C° 0 mm 0 mps 700 mmHg 97%
    04:00 -19°C° 0 mm 0 mps 700 mmHg 97%
    05:00 -19°C° 0 mm 1 mps 700 mmHg 97%
    06:00 -19°C° 0 mm 1 mps 700 mmHg 97%
    07:00 -19°C° 0 mm 1 mps 700 mmHg 97%
    08:00 -17°C° 0 mm 1 mps 701 mmHg 94%
    09:00 -16°C° 0 mm 1 mps 701 mmHg 91%
    10:00 -14°C° 0 mm 1 mps 701 mmHg 88%
    11:00 -12°C° 0 mm 1 mps 701 mmHg 84%
    12:00 -11°C° 0 mm 1 mps 700 mmHg 80%
    13:00 -9°C° 0 mm 1 mps 700 mmHg 77%
    14:00 -10°C° 0 mm 1 mps 700 mmHg 79%
    15:00 -11°C° 0 mm 1 mps 700 mmHg 82%
    16:00 -12°C° 0 mm 1 mps 700 mmHg 84%
    17:00 -13°C° 0 mm 1 mps 700 mmHg 84%
    18:00 -14°C° 0 mm 1 mps 700 mmHg 85%
    19:00 -15°C° 0 mm 1 mps 700 mmHg 85%
    20:00 -16°C° 0 mm 1 mps 700 mmHg 86%
    21:00 -16°C° 0 mm 1 mps 700 mmHg 86%
    22:00 -16°C° 0 mm 1 mps 700 mmHg 87%
    23:00 -16°C° 0 mm 1 mps 699 mmHg 86%
    Show more